CAPE
0 0 0 0 0 0 0 0 0 0 0 0 0 0 0 0 0 0 0 0 0 0 0 0 0 0 0 0 0 0 0 187 1024 1241 1613 2004 2067 2045 2035 2048 2068 2202 2064 1976 2025 1967 1820 1666 1494 1437 1415 1349 1249 924 957 996 1131 1152 1123 1217 1217 1218 1244 1217 1105 1182 1376 1336 1351 1378 1466 1401 1368 1164 1105 1028 1008 854 870 904 874 849 780 805 1065 1078
0 0 0 0 0 0 0 0 0 0 0 0 0 0 0 0 0 0 0 0 0 0 0 0 0 0 0 0 0 0 0 689 1234 1363 1730 2149 2135 2103 2131 2152 2066 2122 2112 2079 2002 1858 1826 1652 1568 1569 1441 1219 1167 889 866 859 888 926 1126 1242 1190 1186 1338 1370 1250 1335 1446 1332 1311 1390 1294 1312 1335 1304 1174 1070 896 848 895 983 993 804 734 852 986 971
0 0 0 0 0 0 0 0 0 0 0 0 0 0 0 0 0 0 0 0 0 0 0 0 0 0 0 0 0 0 0 608 1375 1399 1746 2128 2152 2170 2184 2120 2172 2185 2034 1992 1757 1754 1776 1662 1578 1566 1284 1240 1110 811 699 683 740 826 940 1171 1084 1091 1197 1036 987 1140 1170 1259 1390 1510 1470 1455 1271 1232 1223 946 788 680 707 807 761 701 667 651 688 735
0 0 0 0 0 0 0 0 0 0 0 0 0 0 0 0 0 0 0 0 0 0 0 0 0 0 0 0 0 0 0 655 1536 1516 1843 2086 2136 2156 2164 2228 2314 2246 2204 2066 1728 1696 1741 1767 1649 1624 1393 1260 984 460 596 680 784 773 854 1016 982 997 1040 1003 1149 1231 1277 1312 1276 1216 1200 1028 907 816 880 704 608 546 622 638 569 618 680 684 702 774
0 0 0 0 0 0 0 0 0 0 0 0 0 0 0 0 0 0 0 0 0 0 0 0 0 0 0 0 0 0 0 723 1683 1756 1946 2062 2182 2240 2157 2259 2287 2191 2058 1930 1574 1629 1805 1781 1757 1682 1391 1214 1063 644 849 790 880 873 891 875 818 892 1167 1292 1252 1196 1100 1094 884 653 544 537 458 237 256 324 363 237 250 15 51 346 524 605 649 646
0 0 0 0 0 0 0 0 0 0 0 0 0 0 0 0 0 0 0 0 0 0 0 0 0 0 0 0 0 0 22 840 1613 1878 2028 2059 2278 2304 2132 2284 2198 1957 1702 1386 1417 1639 1743 1778 1692 1623 1330 1285 1240 1130 910 857 863 728 712 710 767 1043 1390 1346 1174 1076 1036 946 526 417 403 408 392 342 293 262 20 39 20 15 29 0 0 368 464 422
0 0 0 0 0 0 0 0 0 0 0 0 0 0 0 0 0 0 0 0 0 0 0 0 0 0 0 0 0 0 0 592 1714 1895 1916 2234 2374 2258 2028 2114 2108 1880 1750 1366 1376 1637 1656 1642 1618 1470 1425 1391 1317 1123 990 759 700 632 674 680 868 1140 1318 1206 1078 1045 898 621 336 424 402 385 371 347 300 62 55 3 2 203 192 0 0 111 0 0
0 0 0 0 12 2 0 0 0 0 0 0 0 0 0 0 2 6 1 0 0 0 0 0 0 0 0 0 0 0 0 275 1394 1714 1817 2267 2283 2106 2021 2057 1990 1910 1782 1531 1436 1504 1531 1523 1437 1348 1457 1373 1276 1116 1062 717 672 730 815 794 895 1035 1071 1013 1043 894 640 431 290 352 289 329 377 262 61 278 297 0 0 0 0 0 0 0 0 0
0 0 0 0 0 0 0 0 0 0 0 0 0 0 0 2 1 4 0 0 0 0 0 0 3 0 0 8 0 0 0 16 533 1297 1840 2190 2159 1993 1944 1838 1832 1919 1852 1698 1416 1473 1550 1452 1227 1239 1379 1385 1253 1123 920 896 840 841 911 879 853 700 553 943 940 706 540 416 195 296 227 328 289 118 268 320 106 0 0 137 0 0 0 0 0 0
0 0 0 0 0 0 0 0 0 0 0 0 0 0 0 0 0 0 5 0 0 0 0 0 0 0 10 6 0 0 0 158 810 1158 1998 2063 1934 1880 1892 1753 1690 1822 1805 1464 1566 1576 1447 1377 1188 1255 1251 1366 1295 1082 1070 1002 981 978 929 794 630 570 663 921 778 604 534 411 344 294 255 314 296 88 0 0 0 0 46 148 0 0 0 0 0 0
0 0 0 0 0 0 0 0 0 0 0 0 0 0 0 0 0 0 0 2 0 0 0 0 4 0 5 4 10 4 54 129 1274 1578 2035 1924 1766 1869 1927 1815 1895 1796 1629 1544 1640 1390 1040 1172 1239 1312 1276 1368 1213 1200 1212 1114 1033 1043 1042 946 851 690 743 752 694 614 568 425 392 351 343 399 176 0 0 0 0 0 0 0 0 0 0 0 0 0
0 0 0 0 0 0 0 0 0 0 0 0 0 0 0 0 0 0 0 0 0 0 0 0 0 0 2 54 87 380 338 812 1474 1748 1870 1882 1825 1863 1913 1934 1835 1789 1684 1614 1554 738 903 1198 1184 1203 1256 1422 1182 1212 1213 1204 1160 1143 1087 1065 1019 866 792 719 656 639 604 526 534 512 475 238 0 0 0 0 0 0 0 0 0 0 0 0 0 0
0 0 0 0 0 0 0 0 0 0 0 0 0 0 0 0 0 0 0 0 0 0 0 0 0 0 0 476 310 390 475 652 1448 1718 1852 1921 1767 1760 2024 2030 1935 1719 1690 1604 691 626 874 1021 1112 1261 1336 1305 1260 1115 1192 1187 1228 1210 1135 1042 964 978 818 721 714 714 654 616 591 516 326 0 0 0 0 0 0 0 0 0 0 0 0 0 0 0
0 0 0 0 0 0 0 0 0 0 0 0 0 0 0 0 0 0 0 0 0 0 0 0 0 1 304 558 491 540 490 1124 1467 1756 1900 1917 1834 1841 1965 1808 1679 1566 1316 1052 625 736 864 1058 1151 1205 1273 1258 1128 1047 1139 1152 1208 1214 1084 835 843 956 846 735 780 778 716 590 483 334 175 174 192 201 88 0 0 76 111 0 0 0 0 0 0 0
0 0 0 0 0 0 0 0 0 0 0 0 0 0 0 0 0 0 0 33 0 0 0 0 0 0 298 754 650 693 1195 1510 1555 1638 1714 1854 1912 1744 1750 1581 1401 1346 1144 818 541 772 831 1078 1240 1152 1177 1177 1052 1014 1124 1126 1119 1039 825 724 940 906 736 700 789 820 746 563 550 400 342 283 282 269 0 0 0 143 138 0 0 0 0 0 0 0
0 0 0 0 0 0 0 0 0 0 0 0 0 0 0 0 0 0 28 0 0 0 9 0 88 329 516 664 926 972 1434 1560 1610 1576 1648 1685 1630 1594 1523 1172 1074 994 912 737 533 730 820 1016 1157 1076 1119 1173 1126 1083 1132 1121 1104 728 617 768 864 742 717 723 775 746 508 635 548 459 411 362 314 164 0 42 140 83 4 0 0 0 0 0 0 0
0 0 0 0 0 0 0 0 0 0 0 0 0 0 0 0 0 0 0 0 0 0 0 256 268 478 452 928 1061 1062 1382 1486 1610 1645 1649 1572 1608 1241 1114 1099 1086 992 924 718 538 696 806 958 1002 928 1014 1146 1168 1190 1054 943 769 592 596 763 788 699 602 659 678 405 594 710 514 380 337 273 229 112 0 0 0 87 194 213 62 0 0 0 0 0
0 0 0 0 0 0 0 0 0 0 0 0 0 0 0 54 73 0 7 0 0 2 27 80 145 232 282 261 1087 1093 1131 1277 1281 1444 1358 1176 1128 1055 1109 1174 1180 1048 850 677 580 664 809 912 932 978 994 1116 1200 1273 1139 970 684 631 642 602 583 423 274 325 341 552 741 789 462 283 245 250 214 93 2 0 0 141 270 227 176 0 0 0 0 0
0 0 0 0 0 0 0 0 0 0 0 0 0 0 0 0 0 0 0 0 0 0 0 0 157 107 186 274 760 1059 1233 1262 1283 1210 1170 1189 1313 1317 1203 1101 996 817 822 704 650 715 801 864 921 974 986 1120 1278 1277 1349 1126 743 647 646 627 546 465 436 493 544 753 865 885 418 220 240 282 272 80 0 0 0 0 272 210 184 28 0 0 0 0
0 0 0 0 28 72 0 0 1 0 0 0 0 0 0 0 0 0 0 0 0 6 0 111 97 94 6 119 667 1186 1284 1208 1298 1174 1278 1270 1136 1127 996 1001 997 894 816 717 673 731 817 910 1024 1000 1020 1161 1333 1359 1331 1315 997 864 752 648 625 690 787 836 815 849 910 893 467 239 336 379 93 0 0 0 0 0 107 160 175 15 0 0 0 0
0 0 0 0 0 0 7 0 0 0 0 0 0 0 0 0 1 15 3 1 35 50 0 6 139 250 131 238 460 607 1044 1196 1195 1216 1162 1151 1077 1130 1157 1120 1066 984 880 769 737 692 719 758 846 941 974 1038 1148 1264 1303 1272 1176 1086 1020 940 811 804 950 1064 1079 937 914 804 578 477 499 172 0 0 0 0 0 0 115 152 134 5 0 0 0 0
0 0 0 0 0 0 4 17 1 0 0 0 0 0 0 0 0 0 0 0 0 0 0 0 8 355 542 432 228 188 684 930 1115 1197 1158 1267 1248 1242 1185 1071 1031 1009 838 739 650 640 692 720 816 881 933 1014 1108 1168 1134 1073 1080 873 1107 998 1022 975 1059 1221 1212 1058 875 778 582 509 393 0 0 0 6 128 0 4 146 116 99 0 0 0 0 0
0 1 0 0 0 6 0 0 0 0 0 0 0 0 0 0 0 0 0 0 0 0 0 0 366 186 476 486 196 336 315 372 375 940 1227 1166 1132 1055 974 889 862 777 745 918 841 782 748 786 767 772 813 944 993 1015 1016 979 923 874 733 933 885 1004 1029 865 855 694 542 365 280 388 240 0 0 0 0 0 0 0 0 0 0 0 0 0 0 0
653 0 0 0 0 1 2 1 0 0 0 0 0 0 0 0 0 0 0 0 0 0 0 0 16 205 266 403 270 120 138 179 129 264 920 841 848 829 784 838 740 698 677 586 743 782 482 627 764 784 796 798 844 881 904 889 783 748 724 739 726 991 1026 514 360 501 496 377 376 425 163 36 36 33 12 4 0 0 0 0 0 0 0 0 3 0
0 0 0 0 0 4 16 8 3 0 0 0 0 0 0 0 0 0 0 0 0 0 0 0 25 231 210 406 260 196 188 159 196 268 558 673 732 754 765 714 717 676 638 631 486 275 133 112 315 528 582 640 679 744 772 752 598 550 437 333 154 672 790 792 448 454 492 413 374 439 334 25 38 25 4 0 0 0 0 1 0 0 0 0 5 0
0 0 0 0 0 1 2 7 12 3 0 0 0 0 0 0 0 0 0 0 0 0 0 0 215 220 154 350 335 195 120 74 121 153 215 641 756 822 848 728 596 561 526 416 410 522 421 187 365 401 499 610 692 748 701 648 417 152 63 75 145 119 76 74 30 403 92 39 42 260 124 0 24 53 91 28 0 0 0 0 20 53 3 4 7 0
0 0 0 0 0 0 4 12 11 1 0 4 5 0 0 0 0 0 0 0 0 0 0 0 205 354 277 388 407 320 267 264 107 273 582 597 554 545 548 482 440 381 335 338 414 477 526 494 410 381 369 418 400 388 359 433 282 241 60 109 127 129 72 36 92 404 392 225 24 347 322 44 56 52 104 48 11 0 0 0 103 66 32 1 5 0
0 0 1 0 0 0 0 0 24 15 6 0 0 0 0 0 0 0 122 32 37 0 7 286 311 225 184 219 281 318 143 132 166 403 559 629 655 453 346 309 316 367 314 275 251 240 342 352 316 286 184 238 264 220 300 295 359 43 23 66 73 115 0 0 0 19 277 320 342 278 294 202 144 154 46 19 0 0 0 67 168 88 45 121 9 1
0 12 3 0 1 1 4 3 11 6 2 1 0 0 0 0 0 0 11 0 0 0 0 285 308 214 260 169 213 221 233 246 408 319 386 481 414 352 290 72 340 261 57 38 17 1 0 232 51 0 0 0 0 36 39 218 208 135 1 0 0 0 0 0 445 348 79 0 0 60 260 290 170 110 66 11 0 187 94 202 250 159 66 92 207 0
0 8 1 0 0 0 1 3 2 0 0 0 0 0 0 280 291 0 0 0 0 89 143 307 312 127 222 142 209 234 227 379 410 289 244 265 267 223 287 122 130 7 62 4 0 0 29 16 1 2 0 0 0 0 66 149 138 112 31 30 22 190 0 202 304 376 202 0 0 145 303 175 206 132 0 0 76 0 261 294 283 198 96 164 270 196
0 0 0 0 0 0 0 0 0 0 0 0 0 0 0 280 292 2 0 0 0 15 414 452 410 326 125 229 419 359 182 234 184 331 229 178 200 84 48 20 34 44 0 0 0 0 0 0 0 0 0 0 0 0 8 6 0 80 95 87 131 156 138 149 11 2 256 296 350 454 349 278 326 240 0 0 0 0 207 297 284 312 434 341 246 168
0 0 0 0 2 7 0 0 0 1 0 0 0 0 0 0 0 0 0 0 0 189 322 507 408 274 271 247 276 245 197 190 216 284 112 35 7 0 1 1 37 10 1 1 1 0 0 0 0 0 0 0 0 0 0 0 0 43 0 0 0 0 3 5 60 160 206 266 310 500 451 480 549 445 474 337 35 132 284 299 325 336 397 403 452 424
0 0 0 0 0 3 0 0 2 1 0 0 0 0 0 0 0 0 0 0 0 0 52 377 300 188 117 40 231 178 124 163 234 331 264 215 101 28 6 79 17 0 2 8 18 0 0 0 0 0 0 0 0 0 0 0 0 0 0 0 0 0 0 0 49 25 93 178 230 240 326 425 398 429 487 520 483 454 442 375 351 338 433 438 563 547
0 0 0 0 0 0 0 0 3 0 1 1 0 0 0 0 0 0 0 0 0 0 32 4 104 90 26 100 80 120 87 85 144 240 265 255 157 81 128 117 105 61 6 39 0 0 0 0 0 0 0 0 0 0 0 0 0 0 0 0 0 0 0 0 0 0 0 116 114 103 112 157 212 199 177 183 178 252 346 444 447 395 426 466 506 520
0 0 0 6 5 3 0 1 0 1 0 0 0 0 0 0 0 0 0 0 0 0 0 0 1 31 114 117 134 115 97 164 153 191 172 171 131 133 57 30 58 56 42 22 12 0 1 0 0 0 0 0 0 0 0 0 0 0 0 0 0 0 6 4 5 2 0 7 34 33 9 0 0 0 0 90 107 94 25 0 154 210 185 0 221 279
0 0 0 12 12 15 0 0 3 0 0 0 0 0 0 0 0 0 0 0 0 0 0 4 0 0 26 14 19 3 40 102 104 110 90 94 53 93 49 16 55 54 61 63 48 20 44 26 8 0 3 3 0 10 8 1 4 4 0 1 9 0 0 0 14 14 10 2 6 2 12 10 11 13 1 0 1 6 5 101 146 173 0 0 0 272
18 0 8 2 8 14 3 1 0 8 0 0 0 0 0 1 0 0 0 0 0 0 0 0 5 8 0 0 9 12 15 45 90 78 75 73 45 72 97 76 82 56 43 55 23 20 40 37 1 0 0 0 0 0 0 3 4 15 21 20 24 22 13 29 32 45 35 33 15 33 20 19 29 12 1 4 2 11 3 0 0 0 250 156 339 365
0 0 1 4 17 13 6 0 0 0 3 0 0 0 0 0 0 0 0 0 0 0 0 0 0 0 0 0 1 1 4 7 6 12 38 69 108 88 40 11 9 8 2 2 0 1 4 0 0 0 0 0 0 0 0 0 0 0 0 0 1 4 6 3 1 2 12 28 10 5 1 2 0 0 0 0 0 0 0 0 189 32 0 35 40 0
0 0 2 0 41 5 13 0 0 0 0 0 0 0 0 0 0 0 0 0 0 0 0 0 0 0 0 0 0 0 0 5 4 8 4 1 0 0 1 0 0 0 1 0 0 1 3 3 3 8 9 8 10 8 11 11 8 4 5 4 4 1 0 0 0 0 0 2 9 13 8 0 0 0 0 0 0 0 0 0 0 0 0 0 0 0
0 0 2 4 38 10 17 1 11 0 3 0 0 0 0 0 0 0 0 0 0 0 0 0 0 0 3 7 6 3 3 2 0 1 1 0 0 0 0 0 0 0 1 1 3 6 4 1 1 5 12 15 15 14 15 16 14 11 8 8 5 2 1 0 0 0 1 0 0 0 0 0 0 0 0 0 0 0 0 0 0 0 0 0 0 0
0 0 0 10 6 1 1 0 1 0 0 0 0 0 0 1 1 0 0 0 0 0 0 0 0 6 6 10 10 17 5 3 8 6 3 1 0 0 0 0 0 0 0 0 0 0 0 1 1 2 3 3 5 5 6 6 7 5 2 1 3 2 2 0 0 0 0 0 0 0 0 0 0 0 0 0 0 0 0 0 0 0 0 0 0 0
0 0 0 0 0 0 2 0 0 0 0 0 0 0 0 0 2 0 0 0 0 0 0 0 4 7 7 11 8 8 8 2 6 5 2 3 3 3 2 0 1 1 0 0 0 1 0 0 0 0 0 0 1 1 0 0 0 0 0 0 0 0 0 0 0 0 0 0 0 0 0 0 0 0 0 0 0 0 0 0 0 0 0 0 0 0
0 0 0 0 0 0 0 1 0 0 0 0 0 0 0 0 0 0 0 0 0 1 0 0 4 1 3 7 6 4 1 2 0 1 2 1 4 4 1 0 0 0 0 0 0 0 0 0 0 1 4 4 3 2 2 2 5 5 3 3 5 4 3 1 0 0 0 0 0 0 0 0 0 0 0 0 0 0 0 0 0 0 0 0 0 0
0 0 0 0 0 0 0 0 0 0 0 0 0 0 0 0 0 0 0 0 0 0 0 0 1 2 4 4 1 1 3 2 3 0 0 0 0 0 0 0 0 0 0 0 0 1 2 3 3 4 5 4 3 2 1 1 3 8 10 8 5 0 0 0 0 0 0 0 0 0 0 0 0 0 0 0 0 0 0 0 0 0 0 0 0 0
0 0 0 0 0 0 0 0 0 1 0 0 0 0 0 0 0 0 0 0 0 2 4 4 5 6 4 2 0 0 0 0 0 0 0 0 0 0 0 0 0 0 0 2 3 5 5 6 3 1 0 0 0 0 0 0 1 1 1 0 0 0 0 0 0 0 0 0 0 0 0 0 0 0 0 0 0 0 0 0 0 0 0 0 0 0
0 0 0 0 0 0 0 0 0 0 0 0 0 0 0 0 0 0 0 0 0 0 1 2 6 9 8 8 2 0 1 0 0 0 0 0 0 0 0 0 0 0 0 0 0 0 0 0 0 0 0 0 0 0 0 0 0 0 0 0 0 0 0 0 0 0 0 0 0 0 0 0 0 0 0 0 0 0 0 0 0 0 0 0 0 0
0 0 0 0 0 0 0 0 0 0 0 0 0 0 0 0 0 0 4 4 3 4 5 5 4 5 5 4 4 1 3 2 2 1 0 1 0 0 0 0 0 0 0 0 0 0 0 0 0 0 0 0 0 0 0 0 0 0 0 0 0 0 0 0 0 0 0 0 0 0 0 0 0 0 0 0 0 0 0 0 0 0 0 0 0 0
0 0 0 0 0 0 0 0 0 0 0 0 0 4 5 5 5 5 7 3 3 1 2 3 1 1 0 1 4 3 3 1 1 1 3 8 6 6 3 0 0 0 0 0 0 0 0 0 0 0 0 0 0 0 0 0 0 0 0 0 0 0 0 0 0 0 0 0 0 0 0 0 0 0 0 0 0 0 0 0 0 0 0 0 0 0
0 0 0 0 0 0 0 0 0 0 0 0 0 2 6 6 9 11 11 11 13 7 6 1 3 3 1 0 0 0 0 1 1 2 5 6 5 5 3 1 0 0 0 0 0 0 0 0 0 0 0 0 0 0 0 0 0 0 0 0 0 0 0 0 0 0 0 0 0 0 0 0 0 0 0 0 0 0 0 0 0 0 0 0 0 0
0 0 1 0 0 0 0 0 0 0 0 0 0 0 2 4 10 16 14 12 13 10 7 8 11 9 5 0 0 0 0 0 0 0 0 0 0 0 0 0 0 0 0 0 0 0 0 0 0 0 0 0 0 0 0 0 0 0 0 0 0 0 0 0 0 0 0 0 0 0 0 0 0 0 0 0 0 0 0 0 0 0 0 0 0 0
0 0 0 0 0 0 0 0 0 0 0 0 0 0 0 0 0 5 8 6 3 3 1 0 0 1 0 0 0 0 0 0 0 0 0 0 0 0 0 0 0 0 0 0 0 0 0 0 0 0 0 0 0 0 0 0 0 0 0 0 0 0 0 0 0 0 0 0 0 0 0 0 0 0 0 0 0 0 0 0 0 0 0 0 0 0
Wind_Speed
nan nan nan nan nan nan nan nan nan nan nan nan nan nan nan nan nan nan nan nan nan nan nan nan nan nan nan nan nan nan nan 33 38 31 27 27 28 27 26 26 29 29 28 24 28 27 29 33 34 36 36 33 30 29 22 16 13 15 12 14 16 15 15 15 15 13 14 14 11 9 7 7 10 11 13 13 12 11 10 9 7 7 6 5 6 7
nan nan nan nan nan nan nan nan nan nan nan nan nan nan nan nan nan nan nan nan nan nan nan nan nan nan nan nan nan nan nan 29 34 33 29 29 27 26 28 29 32 32 28 27 27 26 27 31 35 37 35 35 34 29 23 15 13 15 16 17 18 16 14 13 14 13 14 10 5 6 6 8 13 15 16 13 11 9 9 7 7 7 7 6 6 7
nan nan nan nan nan nan nan nan nan nan nan nan nan nan nan nan nan nan nan nan nan nan nan nan nan nan nan nan nan nan nan 23 30 32 29 33 30 27 28 32 32 32 30 28 26 26 27 32 34 33 33 31 35 33 27 22 23 23 20 16 15 15 13 11 10 10 9 4 1 5 6 11 12 13 13 12 10 8 7 6 7 7 7 7 8 8
nan nan nan nan nan nan nan nan nan nan nan nan nan nan nan nan nan nan nan nan nan nan nan nan nan nan nan nan nan nan nan 26 26 28 28 29 30 28 30 32 31 33 35 31 28 28 29 33 35 34 34 30 30 31 28 25 26 24 20 17 15 13 12 11 9 8 6 8 8 10 11 13 13 11 12 12 10 9 8 7 7 8 8 9 10 10
nan nan nan nan nan nan nan nan nan nan nan nan nan nan nan nan nan nan nan nan nan nan nan nan nan nan nan nan nan nan nan 32 26 26 26 27 25 23 26 28 30 35 37 34 33 33 32 37 38 37 34 33 34 32 30 28 26 23 21 19 17 13 11 10 9 8 10 15 17 15 15 16 16 15 14 14 11 9 8 nan nan 8 10 11 12 11
nan nan nan nan nan nan nan nan nan nan nan nan nan nan nan nan nan nan nan nan nan nan nan nan nan nan nan nan nan nan nan 33 28 27 27 30 26 25 27 31 34 36 35 37 37 36 33 34 36 36 35 34 32 31 29 29 28 26 22 19 16 12 10 10 10 10 12 14 16 16 17 17 15 14 14 13 nan nan nan nan nan nan nan 13 13 12
nan nan nan nan nan nan nan nan nan nan nan nan nan nan nan nan nan nan nan nan nan nan nan nan nan nan nan nan nan nan nan 33 31 27 29 27 25 27 32 34 37 40 39 37 36 34 32 32 36 35 34 32 31 28 27 27 26 26 24 20 16 13 12 12 11 11 11 13 14 16 16 15 15 14 11 nan nan nan nan 11 14 nan nan 15 nan nan
nan nan nan nan nan nan nan nan nan nan nan nan nan nan nan nan nan nan nan nan nan nan nan nan nan nan nan nan nan nan nan 33 35 33 33 28 30 34 36 39 41 41 37 37 37 36 34 34 35 34 31 29 27 26 26 26 26 27 24 20 16 13 13 12 11 11 10 15 16 16 15 13 14 13 nan 11 10 nan nan nan nan nan nan nan nan nan
nan nan nan nan nan nan nan nan nan nan nan nan nan nan nan nan nan nan nan nan nan nan nan nan nan nan nan nan nan nan nan nan 31 36 34 33 34 37 40 42 43 41 39 41 40 39 38 38 35 37 34 28 27 26 26 26 24 23 21 19 16 14 13 12 11 11 11 15 16 15 13 13 12 13 12 11 12 nan nan 15 nan nan nan nan nan nan
nan nan nan nan nan nan nan nan nan nan nan nan nan nan nan nan nan nan nan nan nan nan nan nan nan nan nan nan nan nan nan 25 28 33 36 37 38 38 39 41 41 39 39 39 41 40 37 32 29 33 36 33 28 26 25 22 19 17 18 17 16 13 12 11 11 11 11 13 15 15 12 12 12 nan nan nan nan nan nan 14 nan nan nan nan nan nan
nan nan nan nan nan nan nan nan nan nan nan nan nan nan nan nan nan nan nan nan nan nan nan nan nan nan nan nan nan nan nan 28 37 38 38 41 41 38 38 39 40 38 37 36 37 36 33 28 29 30 32 29 26 23 23 22 21 17 13 14 13 11 11 10 11 11 10 12 13 13 12 13 14 nan nan nan nan nan nan nan nan nan nan nan nan nan
nan nan nan nan nan nan nan nan nan nan nan nan nan nan nan nan nan nan nan nan nan nan nan nan nan nan nan nan nan 29 32 36 42 41 40 42 41 39 36 36 36 36 35 34 33 30 26 24 25 26 26 25 24 21 20 21 19 14 9 10 12 12 11 9 9 7 7 9 10 10 10 12 nan nan nan nan nan nan nan nan nan nan nan nan nan nan
nan nan nan nan nan nan nan nan nan nan nan nan nan nan nan nan nan nan nan nan nan nan nan nan nan nan nan 22 25 33 34 29 36 37 38 42 38 35 34 34 33 33 32 32 29 28 25 22 23 22 22 22 22 21 21 19 15 12 10 11 12 12 10 7 4 3 5 8 8 7 7 nan nan nan nan nan nan nan nan nan nan nan nan nan nan nan
nan nan nan nan nan nan nan nan nan nan nan nan nan nan nan nan nan nan nan nan nan nan nan nan nan nan 22 20 26 29 33 31 32 32 35 34 32 32 32 32 32 32 32 30 27 27 25 20 19 19 20 20 19 18 17 16 14 10 8 7 9 10 10 9 7 6 6 9 9 8 9 9 11 14 nan nan nan nan 18 nan nan nan nan nan nan nan
nan nan nan nan nan nan nan nan nan nan nan nan nan nan nan nan nan nan nan nan nan nan nan nan nan nan 28 22 21 22 30 33 34 34 33 28 27 28 29 31 30 30 28 26 22 24 27 21 20 19 18 17 17 16 15 14 12 7 4 4 5 9 9 9 9 8 8 10 11 11 12 12 13 15 nan nan nan 20 22 nan nan nan nan nan nan nan
nan nan nan nan nan nan nan nan nan nan nan nan nan nan nan nan nan nan nan nan nan nan nan nan nan 32 35 27 26 28 32 36 37 36 33 29 26 26 26 25 23 20 20 20 19 19 21 21 19 16 14 13 14 14 13 12 12 10 6 3 4 7 9 10 10 10 10 12 12 12 13 12 14 16 nan nan 21 nan nan nan nan nan nan nan nan nan
nan nan nan nan nan nan nan nan nan nan nan nan nan nan nan nan nan nan nan nan nan nan nan 25 31 35 36 38 36 30 33 33 35 34 32 30 27 26 25 23 17 12 15 17 16 18 19 19 17 13 11 11 13 13 12 12 11 10 10 8 9 13 15 15 14 13 14 15 13 12 13 14 15 17 nan nan nan nan 23 24 nan nan nan nan nan nan
nan nan nan nan nan nan nan nan nan nan nan nan nan nan nan nan nan nan nan nan nan nan nan nan 23 24 33 31 26 28 32 29 29 31 30 27 25 27 25 23 18 15 15 15 14 16 18 17 14 11 9 10 12 14 15 13 10 9 10 10 11 13 15 16 15 14 15 16 14 14 15 15 16 nan nan nan nan 23 25 24 22 nan nan nan nan nan
nan nan nan nan nan nan nan nan nan nan nan nan nan nan nan nan nan nan nan nan nan nan nan nan 22 25 28 27 24 20 28 25 25 28 29 24 23 23 22 21 20 20 20 18 17 18 16 13 12 11 11 15 17 18 18 16 14 13 12 12 13 14 15 15 15 14 15 15 15 16 17 18 19 nan nan nan nan nan 26 25 22 nan nan nan nan nan
nan nan nan nan nan nan nan nan nan nan nan nan nan nan nan nan nan nan nan nan nan nan nan 24 nan nan nan 28 24 18 22 24 24 23 22 19 19 20 21 21 21 21 20 19 21 22 22 20 18 17 18 21 21 22 22 20 17 15 14 16 17 17 18 18 17 15 14 14 16 18 20 20 nan nan nan nan nan nan 26 25 21 nan nan nan nan nan
nan nan nan nan nan nan nan nan nan nan nan nan nan nan nan nan nan nan nan nan nan nan nan nan 26 26 26 25 22 20 23 19 20 22 21 21 23 24 25 25 24 26 26 27 28 28 29 28 25 24 23 23 23 23 24 23 19 15 16 21 23 22 19 18 18 18 16 17 18 21 22 23 nan nan nan nan nan nan 25 24 21 nan nan nan nan nan
nan nan nan nan nan nan nan nan nan nan nan nan nan nan nan nan nan nan nan nan nan nan nan nan nan 27 26 29 30 34 29 24 19 22 22 23 25 26 27 27 26 25 27 28 29 30 30 30 29 28 27 26 26 26 28 28 24 21 22 26 30 27 20 18 19 22 19 19 22 27 28 nan nan nan nan 28 nan nan 26 25 nan nan nan nan nan nan
nan nan nan nan nan nan nan nan nan nan nan nan nan nan nan nan nan nan nan nan nan nan nan nan 29 26 27 28 34 36 32 27 21 23 25 26 27 26 24 25 25 25 25 23 22 22 25 29 32 33 34 32 31 32 34 33 31 30 29 28 27 27 29 30 31 31 27 29 32 36 35 nan nan nan nan nan nan nan nan nan nan nan nan nan nan nan
33 nan nan nan nan nan nan nan nan nan nan nan nan nan nan nan nan nan nan nan nan nan nan nan nan 25 26 28 32 34 32 30 26 27 30 28 28 27 27 27 26 27 27 26 23 23 25 29 31 33 33 32 31 33 34 33 34 34 30 30 30 26 26 30 33 32 34 35 34 30 32 nan nan nan nan nan nan nan nan nan nan nan nan nan nan nan
nan nan nan nan nan nan nan nan nan nan nan nan nan nan nan nan nan nan nan nan nan nan nan nan nan 26 27 26 27 28 30 31 25 25 26 28 27 28 29 27 27 28 29 28 27 29 31 32 32 30 29 29 29 29 27 28 30 32 31 30 27 24 26 29 31 32 32 32 33 29 27 nan nan nan nan nan nan nan nan nan nan nan nan nan nan nan
nan nan nan nan nan nan nan nan nan nan nan nan nan nan nan nan nan nan nan nan nan nan nan nan 33 29 32 31 31 30 30 nan 25 20 25 25 25 26 26 26 27 28 29 29 29 32 31 28 29 29 28 27 26 28 28 28 28 28 nan nan 26 23 nan nan nan 31 nan nan nan 31 29 nan nan nan nan nan nan nan nan nan nan nan nan nan nan nan
nan nan nan nan nan nan nan nan nan nan nan nan nan nan nan nan nan nan nan nan nan nan nan nan 33 34 33 33 33 31 32 34 29 21 23 26 28 28 28 27 27 27 27 28 28 27 28 29 29 27 27 27 28 29 26 22 20 18 nan 30 29 24 nan nan nan 27 26 27 nan 28 29 nan nan nan 24 nan nan nan nan nan 20 nan nan nan nan nan
nan nan nan nan nan nan nan nan nan nan nan nan nan nan nan nan nan nan 39 nan nan nan nan 31 33 36 31 34 35 33 32 32 28 23 22 24 25 27 29 30 31 31 30 30 30 31 31 30 29 28 24 21 20 21 20 17 17 nan nan nan nan 23 nan nan nan nan 22 23 24 22 22 25 23 22 nan nan nan nan nan nan 19 nan nan 19 nan nan
nan nan nan nan nan nan nan nan nan nan nan nan nan nan nan nan nan nan nan nan nan nan nan 32 34 38 34 34 35 31 27 28 26 27 29 29 29 30 30 nan 31 29 nan nan nan nan nan 29 nan nan nan nan nan nan nan 19 18 17 nan nan nan nan nan nan 21 22 nan nan nan nan 19 22 25 23 nan nan nan 22 nan 20 18 20 nan nan 22 nan
nan nan nan nan nan nan nan nan nan nan nan nan nan nan nan 47 44 nan nan nan nan nan 39 38 38 37 32 32 35 35 33 34 35 36 36 37 36 36 35 34 30 nan nan nan nan nan nan nan nan nan nan nan nan nan nan 23 17 14 nan nan nan 17 nan 15 18 20 18 nan nan 18 19 21 22 23 nan nan nan nan 22 22 21 23 nan 25 25 24
nan nan nan nan nan nan nan nan nan nan nan nan nan nan nan 39 43 nan nan nan nan nan 44 42 41 37 31 29 32 33 33 33 37 39 37 34 36 nan nan nan nan nan nan nan nan nan nan nan nan nan nan nan nan nan nan nan nan nan nan nan 23 21 16 15 nan nan 17 15 15 16 16 17 20 21 nan nan nan nan 21 23 24 25 25 25 26 26
nan nan nan nan nan nan nan nan nan nan nan nan nan nan nan nan nan nan nan nan nan 41 42 43 41 37 33 34 34 34 36 38 37 36 35 nan nan nan nan nan nan nan nan nan nan nan nan nan nan nan nan nan nan nan nan nan nan nan nan nan nan nan nan nan nan 19 16 15 15 15 16 16 17 18 15 15 nan 19 21 23 25 25 23 23 23 25
nan nan nan nan nan nan nan nan nan nan nan nan nan nan nan nan nan nan nan nan nan nan nan 40 36 38 37 nan 41 42 41 41 39 36 37 38 35 nan nan nan nan nan nan nan nan nan nan nan nan nan nan nan nan nan nan nan nan nan nan nan nan nan nan nan nan nan nan 19 18 19 18 14 16 18 19 19 18 20 21 23 22 24 26 26 24 24
nan nan nan nan nan nan nan nan nan nan nan nan nan nan nan nan nan nan nan nan nan nan nan nan 43 nan nan 41 nan 45 nan nan 42 42 39 40 40 nan 40 37 35 nan nan nan nan nan nan nan nan nan nan nan nan nan nan nan nan nan nan nan nan nan nan nan nan nan nan 29 29 27 23 20 20 22 23 23 23 22 21 21 22 23 25 27 28 28
nan nan nan nan nan nan nan nan nan nan nan nan nan nan nan nan nan nan nan nan nan nan nan nan nan nan 42 36 32 34 nan 40 40 37 37 38 40 41 nan nan nan nan nan nan nan nan nan nan nan nan nan nan nan nan nan nan nan nan nan nan nan nan nan nan nan nan nan nan nan nan nan nan nan nan nan nan 27 nan nan nan 25 24 24 nan 26 27
nan nan nan nan nan nan nan nan nan nan nan nan nan nan nan nan nan nan nan nan nan nan nan nan nan nan nan nan nan nan nan 34 35 31 nan nan nan nan nan nan nan nan nan nan nan nan nan nan nan nan nan nan nan nan nan nan nan nan nan nan nan nan nan nan nan nan nan nan nan nan nan nan nan nan nan nan nan nan nan 32 31 30 nan nan nan 29
nan nan nan nan nan nan nan nan nan nan nan nan nan nan nan nan nan nan nan nan nan nan nan nan nan nan nan nan nan nan nan nan nan nan nan nan nan nan nan nan nan nan nan nan nan nan nan nan nan nan nan nan nan nan nan nan nan nan nan nan nan nan nan nan nan nan nan nan nan nan nan nan nan nan nan nan nan nan nan nan nan nan 33 33 29 28
nan nan nan nan nan nan nan nan nan nan nan nan nan nan nan nan nan nan nan nan nan nan nan nan nan nan nan nan nan nan nan nan nan nan nan nan 26 nan nan nan nan nan nan nan nan nan nan nan nan nan nan nan nan nan nan nan nan nan nan nan nan nan nan nan nan nan nan nan nan nan nan nan nan nan nan nan nan nan nan nan 35 nan nan nan nan nan
nan nan nan nan nan nan nan nan nan nan nan nan nan nan nan nan nan nan nan nan nan nan nan nan nan nan nan nan nan nan nan nan nan nan nan nan nan nan nan nan nan nan nan nan nan nan nan nan nan nan nan nan nan nan nan nan nan nan nan nan nan nan nan nan nan nan nan nan nan nan nan nan nan nan nan nan nan nan nan nan nan nan nan nan nan nan
nan nan nan nan nan nan nan nan nan nan nan nan nan nan nan nan nan nan nan nan nan nan nan nan nan nan nan nan nan nan nan nan nan nan nan nan nan nan nan nan nan nan nan nan nan nan nan nan nan nan nan nan nan nan nan nan nan nan nan nan nan nan nan nan nan nan nan nan nan nan nan nan nan nan nan nan nan nan nan nan nan nan nan nan nan nan
nan nan nan nan nan nan nan nan nan nan nan nan nan nan nan nan nan nan nan nan nan nan nan nan nan nan nan nan nan nan nan nan nan nan nan nan nan nan nan nan nan nan nan nan nan nan nan nan nan nan nan nan nan nan nan nan nan nan nan nan nan nan nan nan nan nan nan nan nan nan nan nan nan nan nan nan nan nan nan nan nan nan nan nan nan nan
nan nan nan nan nan nan nan nan nan nan nan nan nan nan nan nan nan nan nan nan nan nan nan nan nan nan nan nan nan nan nan nan nan nan nan nan nan nan nan nan nan nan nan nan nan nan nan nan nan nan nan nan nan nan nan nan nan nan nan nan nan nan nan nan nan nan nan nan nan nan nan nan nan nan nan nan nan nan nan nan nan nan nan nan nan nan
nan nan nan nan nan nan nan nan nan nan nan nan nan nan nan nan nan nan nan nan nan nan nan nan nan nan nan nan nan nan nan nan nan nan nan nan nan nan nan nan nan nan nan nan nan nan nan nan nan nan nan nan nan nan nan nan nan nan nan nan nan nan nan nan nan nan nan nan nan nan nan nan nan nan nan nan nan nan nan nan nan nan nan nan nan nan
nan nan nan nan nan nan nan nan nan nan nan nan nan nan nan nan nan nan nan nan nan nan nan nan nan nan nan nan nan nan nan nan nan nan nan nan nan nan nan nan nan nan nan nan nan nan nan nan nan nan nan nan nan nan nan nan nan nan nan nan nan nan nan nan nan nan nan nan nan nan nan nan nan nan nan nan nan nan nan nan nan nan nan nan nan nan
nan nan nan nan nan nan nan nan nan nan nan nan nan nan nan nan nan nan nan nan nan nan nan nan nan nan nan nan nan nan nan nan nan nan nan nan nan nan nan nan nan nan nan nan nan nan nan nan nan nan nan nan nan nan nan nan nan nan nan nan nan nan nan nan nan nan nan nan nan nan nan nan nan nan nan nan nan nan nan nan nan nan nan nan nan nan
nan nan nan nan nan nan nan nan nan nan nan nan nan nan nan nan nan nan nan nan nan nan nan nan nan nan nan nan nan nan nan nan nan nan nan nan nan nan nan nan nan nan nan nan nan nan nan nan nan nan nan nan nan nan nan nan nan nan nan nan nan nan nan nan nan nan nan nan nan nan nan nan nan nan nan nan nan nan nan nan nan nan nan nan nan nan
nan nan nan nan nan nan nan nan nan nan nan nan nan nan nan nan nan nan nan nan nan nan nan nan nan nan nan nan nan nan nan nan nan nan nan nan nan nan nan nan nan nan nan nan nan nan nan nan nan nan nan nan nan nan nan nan nan nan nan nan nan nan nan nan nan nan nan nan nan nan nan nan nan nan nan nan nan nan nan nan nan nan nan nan nan nan
nan nan nan nan nan nan nan nan nan nan nan nan nan nan nan nan nan nan nan nan nan nan nan nan nan nan nan nan nan nan nan nan nan nan nan nan nan nan nan nan nan nan nan nan nan nan nan nan nan nan nan nan nan nan nan nan nan nan nan nan nan nan nan nan nan nan nan nan nan nan nan nan nan nan nan nan nan nan nan nan nan nan nan nan nan nan
nan nan nan nan nan nan nan nan nan nan nan nan nan nan nan nan nan nan nan nan nan nan nan nan nan nan nan nan nan nan nan nan nan nan nan nan nan nan nan nan nan nan nan nan nan nan nan nan nan nan nan nan nan nan nan nan nan nan nan nan nan nan nan nan nan nan nan nan nan nan nan nan nan nan nan nan nan nan nan nan nan nan nan nan nan nan
nan nan nan nan nan nan nan nan nan nan nan nan nan nan nan nan nan nan nan nan nan nan nan nan nan nan nan nan nan nan nan nan nan nan nan nan nan nan nan nan nan nan nan nan nan nan nan nan nan nan nan nan nan nan nan nan nan nan nan nan nan nan nan nan nan nan nan nan nan nan nan nan nan nan nan nan nan nan nan nan nan nan nan nan nan nan
nan nan nan nan nan nan nan nan nan nan nan nan nan nan nan nan nan nan nan nan nan nan nan nan nan nan nan nan nan nan nan nan nan nan nan nan nan nan nan nan nan nan nan nan nan nan nan nan nan nan nan nan nan nan nan nan nan nan nan nan nan nan nan nan nan nan nan nan nan nan nan nan nan nan nan nan nan nan nan nan nan nan nan nan nan nan
Wind_Direction
nan nan nan nan nan nan nan nan nan nan nan nan nan nan nan nan nan nan nan nan nan nan nan nan nan nan nan nan nan nan nan 250 261 258 255 264 271 274 277 283 291 296 301 295 264 259 262 263 261 263 265 274 281 281 285 280 278 253 272 290 303 307 306 303 306 301 299 304 302 275 282 272 259 264 264 268 264 268 266 262 264 269 274 277 281 285
nan nan nan nan nan nan nan nan nan nan nan nan nan nan nan nan nan nan nan nan nan nan nan nan nan nan nan nan nan nan nan 251 265 269 270 273 276 280 285 285 291 293 295 283 262 265 272 269 270 270 281 299 294 302 317 318 310 300 300 306 309 311 305 305 312 309 300 302 319 299 300 270 267 271 273 265 260 264 265 272 283 292 293 293 290 281
nan nan nan nan nan nan nan nan nan nan nan nan nan nan nan nan nan nan nan nan nan nan nan nan nan nan nan nan nan nan nan 243 267 278 285 285 285 285 285 284 292 298 293 269 262 266 276 281 282 281 290 300 307 316 316 316 308 310 309 308 307 307 306 302 303 303 297 253 292 301 277 281 268 259 268 265 259 260 274 287 294 290 287 281 267 270
nan nan nan nan nan nan nan nan nan nan nan nan nan nan nan nan nan nan nan nan nan nan nan nan nan nan nan nan nan nan nan 227 260 273 278 281 290 299 299 296 293 289 282 273 274 280 287 293 293 291 295 299 294 299 309 311 311 304 307 310 306 305 300 297 293 290 247 235 271 279 280 276 276 271 256 251 252 255 266 278 266 269 280 272 268 265
nan nan nan nan nan nan nan nan nan nan nan nan nan nan nan nan nan nan nan nan nan nan nan nan nan nan nan nan nan nan nan 227 248 266 269 257 267 280 269 270 278 280 278 281 284 289 296 299 298 299 300 298 301 306 312 313 305 303 312 310 306 302 300 289 270 255 236 250 264 268 257 261 253 243 247 247 243 256 267 nan nan 274 271 275 276 271
nan nan nan nan nan nan nan nan nan nan nan nan nan nan nan nan nan nan nan nan nan nan nan nan nan nan nan nan nan nan nan 229 237 263 269 264 268 283 278 267 264 267 276 284 290 294 296 298 298 298 300 298 299 305 308 305 304 302 301 298 292 289 284 275 257 247 254 267 275 272 269 269 264 259 252 256 nan nan nan nan nan nan nan 278 274 271
nan nan nan nan nan nan nan nan nan nan nan nan nan nan nan nan nan nan nan nan nan nan nan nan nan nan nan nan nan nan nan 230 232 251 260 267 277 274 270 268 268 276 281 281 285 290 293 299 299 295 297 297 300 306 302 300 302 299 296 291 287 283 273 260 251 252 260 262 261 263 263 266 271 264 239 nan nan nan nan 268 275 nan nan 279 nan nan
nan nan nan nan nan nan nan nan nan nan nan nan nan nan nan nan nan nan nan nan nan nan nan nan nan nan nan nan nan nan nan 238 241 241 242 255 264 265 266 265 273 278 280 283 286 289 295 300 306 303 300 298 300 304 305 304 298 296 296 289 281 277 269 256 248 255 250 257 249 251 254 261 264 262 nan 256 255 nan nan nan nan nan nan nan nan nan
nan nan nan nan nan nan nan nan nan nan nan nan nan nan nan nan nan nan nan nan nan nan nan nan nan nan nan nan nan nan nan nan 248 253 255 261 264 266 267 273 278 282 285 291 296 304 304 308 315 309 307 301 305 310 313 317 307 293 291 286 275 276 266 254 251 255 238 250 255 257 258 258 251 254 257 256 263 nan nan 259 nan nan nan nan nan nan
nan nan nan nan nan nan nan nan nan nan nan nan nan nan nan nan nan nan nan nan nan nan nan nan nan nan nan nan nan nan nan 237 242 255 265 271 273 270 272 276 283 285 290 299 306 305 310 313 307 304 303 309 317 313 313 324 327 311 295 292 283 276 258 252 248 243 236 246 250 254 254 259 249 nan nan nan nan nan nan 261 nan nan nan nan nan nan
nan nan nan nan nan nan nan nan nan nan nan nan nan nan nan nan nan nan nan nan nan nan nan nan nan nan nan nan nan nan nan 236 245 249 257 266 262 266 273 280 288 293 299 305 307 310 314 314 302 298 306 310 312 311 309 316 331 332 312 295 288 275 256 256 262 246 241 240 241 244 245 254 248 nan nan nan nan nan nan nan nan nan nan nan nan nan
nan nan nan nan nan nan nan nan nan nan nan nan nan nan nan nan nan nan nan nan nan nan nan nan nan nan nan nan nan 217 224 256 266 269 268 265 267 273 274 281 288 295 303 304 302 306 303 295 288 293 305 311 313 313 313 311 324 335 322 288 285 271 261 263 262 239 225 228 231 230 241 247 nan nan nan nan nan nan nan nan nan nan nan nan nan nan
nan nan nan nan nan nan nan nan nan nan nan nan nan nan nan nan nan nan nan nan nan nan nan nan nan nan nan 234 219 210 211 248 265 269 265 264 268 272 277 284 289 293 295 298 301 300 301 302 302 311 316 315 318 321 322 320 319 321 314 300 289 281 268 266 240 204 212 223 225 244 246 nan nan nan nan nan nan nan nan nan nan nan nan nan nan nan
nan nan nan nan nan nan nan nan nan nan nan nan nan nan nan nan nan nan nan nan nan nan nan nan nan nan 233 224 211 203 210 240 245 241 246 265 275 277 278 280 284 288 293 296 300 306 307 309 309 316 322 323 316 314 315 317 314 314 325 309 279 267 248 234 225 218 233 227 225 245 252 249 249 259 nan nan nan nan 271 nan nan nan nan nan nan nan
nan nan nan nan nan nan nan nan nan nan nan nan nan nan nan nan nan nan nan nan nan nan nan nan nan nan 238 232 208 210 221 231 247 249 244 242 246 252 263 271 277 286 290 295 301 305 309 310 310 317 322 320 312 310 313 310 300 283 330 332 265 237 225 222 225 229 234 223 223 234 238 245 244 258 nan nan nan 267 269 nan nan nan nan nan nan nan
nan nan nan nan nan nan nan nan nan nan nan nan nan nan nan nan nan nan nan nan nan nan nan nan nan 235 241 240 234 239 235 227 234 247 254 260 262 258 260 271 278 293 306 311 304 299 300 304 307 310 317 312 302 304 299 290 273 260 262 268 227 224 224 223 228 235 238 227 225 234 242 246 250 255 nan nan 260 nan nan nan nan nan nan nan nan nan
nan nan nan nan nan nan nan nan nan nan nan nan nan nan nan nan nan nan nan nan nan nan nan 230 233 234 238 234 231 237 243 237 236 241 253 268 274 271 267 264 274 301 318 318 309 304 305 308 315 315 306 291 289 293 287 270 262 257 247 238 220 220 224 227 229 231 230 223 224 233 244 248 255 265 nan nan nan nan 262 263 nan nan nan nan nan nan
nan nan nan nan nan nan nan nan nan nan nan nan nan nan nan nan nan nan nan nan nan nan nan nan 241 241 241 242 227 237 244 235 240 250 254 254 260 271 274 279 291 297 294 290 290 294 308 315 314 299 280 269 265 264 263 255 245 243 230 224 224 224 232 230 229 222 224 225 225 234 247 254 263 nan nan nan nan 259 258 257 253 nan nan nan nan nan
nan nan nan nan nan nan nan nan nan nan nan nan nan nan nan nan nan nan nan nan nan nan nan nan 223 227 238 245 245 243 263 259 253 247 252 257 254 261 273 280 278 272 269 277 282 283 288 290 279 258 243 233 236 241 241 235 226 227 225 217 216 227 232 238 233 228 229 235 236 242 252 255 255 nan nan nan nan nan 261 260 259 nan nan nan nan nan
nan nan nan nan nan nan nan nan nan nan nan nan nan nan nan nan nan nan nan nan nan nan nan 219 nan nan nan 239 240 236 240 264 267 264 266 262 262 263 264 268 268 265 260 259 254 251 248 247 246 240 231 228 230 234 231 221 213 219 226 226 223 229 237 237 240 240 242 244 247 245 244 243 nan nan nan nan nan nan 264 264 262 nan nan nan nan nan
nan nan nan nan nan nan nan nan nan nan nan nan nan nan nan nan nan nan nan nan nan nan nan nan 228 231 233 233 236 242 240 243 260 269 265 257 251 251 250 249 248 244 242 241 242 242 241 238 233 227 226 227 231 233 228 218 215 220 228 232 235 242 242 244 243 244 246 250 254 253 249 248 nan nan nan nan nan nan 259 260 260 nan nan nan nan nan
nan nan nan nan nan nan nan nan nan nan nan nan nan nan nan nan nan nan nan nan nan nan nan nan nan 231 233 233 237 241 227 219 237 256 255 249 247 246 243 241 242 246 246 249 251 251 251 246 238 231 228 226 228 226 223 216 222 224 230 234 237 243 251 249 240 239 245 244 246 246 240 nan nan nan nan 257 nan nan 261 260 nan nan nan nan nan nan
nan nan nan nan nan nan nan nan nan nan nan nan nan nan nan nan nan nan nan nan nan nan nan nan 241 231 233 232 242 245 241 228 226 231 243 244 246 247 244 242 242 246 252 252 251 253 256 258 248 240 236 234 233 231 231 235 239 238 235 243 244 242 237 233 228 212 219 233 239 243 240 nan nan nan nan nan nan nan nan nan nan nan nan nan nan nan
223 nan nan nan nan nan nan nan nan nan nan nan nan nan nan nan nan nan nan nan nan nan nan nan nan 237 233 235 245 248 247 242 225 229 244 246 250 250 248 250 251 249 247 243 244 250 253 251 248 242 241 243 240 239 242 248 253 248 242 246 249 240 242 245 245 237 235 237 233 233 247 nan nan nan nan nan nan nan nan nan nan nan nan nan nan nan
nan nan nan nan nan nan nan nan nan nan nan nan nan nan nan nan nan nan nan nan nan nan nan nan nan 239 240 241 246 248 257 254 228 215 235 246 246 249 251 255 258 258 257 253 250 253 252 250 246 243 246 248 242 240 247 254 255 253 247 243 243 239 247 255 259 252 249 257 262 251 240 nan nan nan nan nan nan nan nan nan nan nan nan nan nan nan
nan nan nan nan nan nan nan nan nan nan nan nan nan nan nan nan nan nan nan nan nan nan nan nan 241 240 245 248 254 255 255 nan 240 225 234 241 251 255 255 259 261 262 266 268 267 263 256 250 248 247 250 250 247 251 256 256 254 252 nan nan 242 244 nan nan nan 245 nan nan nan 267 261 nan nan nan nan nan nan nan nan nan nan nan nan nan nan nan
nan nan nan nan nan nan nan nan nan nan nan nan nan nan nan nan nan nan nan nan nan nan nan nan 252 254 250 249 254 254 253 257 251 241 249 252 257 262 267 268 265 263 266 269 272 270 260 249 246 248 249 249 246 248 250 250 252 255 nan 238 235 241 nan nan nan 244 244 246 nan 260 261 nan nan nan 255 nan nan nan nan nan 261 nan nan nan nan nan
nan nan nan nan nan nan nan nan nan nan nan nan nan nan nan nan nan nan 225 nan nan nan nan 236 254 257 252 253 251 251 257 254 249 256 262 261 261 267 270 267 266 266 261 259 257 255 251 249 247 243 238 233 236 237 233 229 232 nan nan nan nan 247 nan nan nan nan 240 253 259 264 263 256 253 251 nan nan nan nan nan nan 253 nan nan 238 nan nan
nan nan nan nan nan nan nan nan nan nan nan nan nan nan nan nan nan nan nan nan nan nan nan 254 252 252 252 260 264 261 260 260 256 259 263 267 268 268 269 nan 268 268 nan nan nan nan nan 242 nan nan nan nan nan nan nan 226 229 230 nan nan nan nan nan nan 227 224 nan nan nan nan 240 237 244 247 nan nan nan 240 nan 235 240 250 nan nan 246 nan
nan nan nan nan nan nan nan nan nan nan nan nan nan nan nan 236 234 nan nan nan nan nan 242 254 251 243 238 241 251 253 254 259 263 267 270 271 272 271 267 264 262 nan nan nan nan nan nan nan nan nan nan nan nan nan nan 224 225 224 nan nan nan 228 nan 235 232 233 236 nan nan 254 243 233 236 245 nan nan nan nan 237 235 239 251 nan 251 251 250
nan nan nan nan nan nan nan nan nan nan nan nan nan nan nan 231 238 nan nan nan nan nan 236 243 245 242 233 234 249 256 261 264 264 264 266 269 269 nan nan nan nan nan nan nan nan nan nan nan nan nan nan nan nan nan nan nan nan nan nan nan 224 231 230 229 nan nan 236 245 252 254 245 241 241 238 nan nan nan nan 237 237 243 249 250 245 245 247
nan nan nan nan nan nan nan nan nan nan nan nan nan nan nan nan nan nan nan nan nan 246 245 244 241 243 242 238 245 248 257 259 259 260 260 nan nan nan nan nan nan nan nan nan nan nan nan nan nan nan nan nan nan nan nan nan nan nan nan nan nan nan nan nan nan 244 245 247 243 238 240 241 240 236 245 256 nan 233 239 245 249 252 246 242 243 244
nan nan nan nan nan nan nan nan nan nan nan nan nan nan nan nan nan nan nan nan nan nan nan 250 247 243 243 nan 253 247 250 253 252 254 259 257 255 nan nan nan nan nan nan nan nan nan nan nan nan nan nan nan nan nan nan nan nan nan nan nan nan nan nan nan nan nan nan 231 235 240 248 251 243 242 254 263 254 242 240 242 245 245 240 232 230 237
nan nan nan nan nan nan nan nan nan nan nan nan nan nan nan nan nan nan nan nan nan nan nan nan 250 nan nan 245 nan 254 nan nan 257 255 253 256 256 nan 252 252 255 nan nan nan nan nan nan nan nan nan nan nan nan nan nan nan nan nan nan nan nan nan nan nan nan nan nan 231 232 237 240 240 244 250 256 254 246 239 239 244 244 246 242 231 230 234
nan nan nan nan nan nan nan nan nan nan nan nan nan nan nan nan nan nan nan nan nan nan nan nan nan nan 255 255 255 258 nan 254 253 254 253 249 249 253 nan nan nan nan nan nan nan nan nan nan nan nan nan nan nan nan nan nan nan nan nan nan nan nan nan nan nan nan nan nan nan nan nan nan nan nan nan nan 250 nan nan nan 237 239 245 nan 232 235
nan nan nan nan nan nan nan nan nan nan nan nan nan nan nan nan nan nan nan nan nan nan nan nan nan nan nan nan nan nan nan 258 254 250 nan nan nan nan nan nan nan nan nan nan nan nan nan nan nan nan nan nan nan nan nan nan nan nan nan nan nan nan nan nan nan nan nan nan nan nan nan nan nan nan nan nan nan nan nan 245 245 239 nan nan nan 221
nan nan nan nan nan nan nan nan nan nan nan nan nan nan nan nan nan nan nan nan nan nan nan nan nan nan nan nan nan nan nan nan nan nan nan nan nan nan nan nan nan nan nan nan nan nan nan nan nan nan nan nan nan nan nan nan nan nan nan nan nan nan nan nan nan nan nan nan nan nan nan nan nan nan nan nan nan nan nan nan nan nan 255 256 253 253
nan nan nan nan nan nan nan nan nan nan nan nan nan nan nan nan nan nan nan nan nan nan nan nan nan nan nan nan nan nan nan nan nan nan nan nan 241 nan nan nan nan nan nan nan nan nan nan nan nan nan nan nan nan nan nan nan nan nan nan nan nan nan nan nan nan nan nan nan nan nan nan nan nan nan nan nan nan nan nan nan 253 nan nan nan nan nan
nan nan nan nan nan nan nan nan nan nan nan nan nan nan nan nan nan nan nan nan nan nan nan nan nan nan nan nan nan nan nan nan nan nan nan nan nan nan nan nan nan nan nan nan nan nan nan nan nan nan nan nan nan nan nan nan nan nan nan nan nan nan nan nan nan nan nan nan nan nan nan nan nan nan nan nan nan nan nan nan nan nan nan nan nan nan
nan nan nan nan nan nan nan nan nan nan nan nan nan nan nan nan nan nan nan nan nan nan nan nan nan nan nan nan nan nan nan nan nan nan nan nan nan nan nan nan nan nan nan nan nan nan nan nan nan nan nan nan nan nan nan nan nan nan nan nan nan nan nan nan nan nan nan nan nan nan nan nan nan nan nan nan nan nan nan nan nan nan nan nan nan nan
nan nan nan nan nan nan nan nan nan nan nan nan nan nan nan nan nan nan nan nan nan nan nan nan nan nan nan nan nan nan nan nan nan nan nan nan nan nan nan nan nan nan nan nan nan nan nan nan nan nan nan nan nan nan nan nan nan nan nan nan nan nan nan nan nan nan nan nan nan nan nan nan nan nan nan nan nan nan nan nan nan nan nan nan nan nan
nan nan nan nan nan nan nan nan nan nan nan nan nan nan nan nan nan nan nan nan nan nan nan nan nan nan nan nan nan nan nan nan nan nan nan nan nan nan nan nan nan nan nan nan nan nan nan nan nan nan nan nan nan nan nan nan nan nan nan nan nan nan nan nan nan nan nan nan nan nan nan nan nan nan nan nan nan nan nan nan nan nan nan nan nan nan
nan nan nan nan nan nan nan nan nan nan nan nan nan nan nan nan nan nan nan nan nan nan nan nan nan nan nan nan nan nan nan nan nan nan nan nan nan nan nan nan nan nan nan nan nan nan nan nan nan nan nan nan nan nan nan nan nan nan nan nan nan nan nan nan nan nan nan nan nan nan nan nan nan nan nan nan nan nan nan nan nan nan nan nan nan nan
nan nan nan nan nan nan nan nan nan nan nan nan nan nan nan nan nan nan nan nan nan nan nan nan nan nan nan nan nan nan nan nan nan nan nan nan nan nan nan nan nan nan nan nan nan nan nan nan nan nan nan nan nan nan nan nan nan nan nan nan nan nan nan nan nan nan nan nan nan nan nan nan nan nan nan nan nan nan nan nan nan nan nan nan nan nan
nan nan nan nan nan nan nan nan nan nan nan nan nan nan nan nan nan nan nan nan nan nan nan nan nan nan nan nan nan nan nan nan nan nan nan nan nan nan nan nan nan nan nan nan nan nan nan nan nan nan nan nan nan nan nan nan nan nan nan nan nan nan nan nan nan nan nan nan nan nan nan nan nan nan nan nan nan nan nan nan nan nan nan nan nan nan
nan nan nan nan nan nan nan nan nan nan nan nan nan nan nan nan nan nan nan nan nan nan nan nan nan nan nan nan nan nan nan nan nan nan nan nan nan nan nan nan nan nan nan nan nan nan nan nan nan nan nan nan nan nan nan nan nan nan nan nan nan nan nan nan nan nan nan nan nan nan nan nan nan nan nan nan nan nan nan nan nan nan nan nan nan nan
nan nan nan nan nan nan nan nan nan nan nan nan nan nan nan nan nan nan nan nan nan nan nan nan nan nan nan nan nan nan nan nan nan nan nan nan nan nan nan nan nan nan nan nan nan nan nan nan nan nan nan nan nan nan nan nan nan nan nan nan nan nan nan nan nan nan nan nan nan nan nan nan nan nan nan nan nan nan nan nan nan nan nan nan nan nan
nan nan nan nan nan nan nan nan nan nan nan nan nan nan nan nan nan nan nan nan nan nan nan nan nan nan nan nan nan nan nan nan nan nan nan nan nan nan nan nan nan nan nan nan nan nan nan nan nan nan nan nan nan nan nan nan nan nan nan nan nan nan nan nan nan nan nan nan nan nan nan nan nan nan nan nan nan nan nan nan nan nan nan nan nan nan
nan nan nan nan nan nan nan nan nan nan nan nan nan nan nan nan nan nan nan nan nan nan nan nan nan nan nan nan nan nan nan nan nan nan nan nan nan nan nan nan nan nan nan nan nan nan nan nan nan nan nan nan nan nan nan nan nan nan nan nan nan nan nan nan nan nan nan nan nan nan nan nan nan nan nan nan nan nan nan nan nan nan nan nan nan nan
nan nan nan nan nan nan nan nan nan nan nan nan nan nan nan nan nan nan nan nan nan nan nan nan nan nan nan nan nan nan nan nan nan nan nan nan nan nan nan nan nan nan nan nan nan nan nan nan nan nan nan nan nan nan nan nan nan nan nan nan nan nan nan nan nan nan nan nan nan nan nan nan nan nan nan nan nan nan nan nan nan nan nan nan nan nan
nan nan nan nan nan nan nan nan nan nan nan nan nan nan nan nan nan nan nan nan nan nan nan nan nan nan nan nan nan nan nan nan nan nan nan nan nan nan nan nan nan nan nan nan nan nan nan nan nan nan nan nan nan nan nan nan nan nan nan nan nan nan nan nan nan nan nan nan nan nan nan nan nan nan nan nan nan nan nan nan nan nan nan nan nan nan